[[{"header":{"parameterUnit":"m.s-1","parameterCategory":2,"la1":30.2991,"la2":30.254,"lo1":-89.0895,"lo2":-89.0444,"dy":0.0017,"dx":0.0017,"nx":28,"ny":28,"refTime":"2025-11-20T03:00:00:Z","depth":"0","parameterNumber":2,"parameterNumberName":"U-component_of_CURRENTS"},"data":[0,0,0,0,0,0,0,0,0,0,0,0,0,0,0,0,0,0,0,0,0,0,0,0,0,0,0,0,0,0,0,0,0,0,0,0,0,0,0,0,0,0,0,0,0,0,0,0,0,0,0,0,0,0,0,0,0,0,-0.2968,-0.2968,0,-0.3016,-0.3016,-0.3017,-0.2988,-0.2987,-0.2986,-0.2984,-0.2996,-0.2997,-0.2998,0,0,0,0,0,0,0,0,0,0,0,0,0,-0.286,-0.2862,-0.2967,-0.2968,-0.2969,-0.3016,-0.3016,-0.3017,-0.2988,-0.2987,-0.2985,-0.2984,-0.2995,-0.2997,-0.2999,0,0,0,0,0,0,0,0,0,0,0,0,0,-0.2905,-0.2863,-0.2967,-0.2962,-0.2962,-0.3016,-0.3016,-0.3017,-0.2988,-0.2987,-0.2985,-0.2983,-0.2995,-0.2997,-0.2999,-0.3047,0,0,-0.3005,-0.3006,0,0,0,0,0,0,0,0,-0.2903,-0.2909,-0.2962,-0.2963,-0.2963,-0.2996,-0.2983,-0.3026,-0.2989,-0.2976,-0.2984,-0.2982,-0.2995,-0.2997,-0.3007,-0.3047,-0.3048,-0.3005,-0.3007,-0.3007,-0.3008,0,0,0,0,0,0,0,-0.29,-0.2907,-0.2984,-0.2963,-0.2964,-0.2961,-0.2965,-0.2991,-0.2992,-0.2977,-0.2976,-0.2986,-0.2995,-0.3005,-0.3007,-0.3048,-0.3005,-0.3007,-0.3008,-0.3009,-0.3061,-0.3061,0,0,0,0,0,0,-0.2901,-0.2904,-0.2983,-0.2986,-0.2931,-0.2965,-0.2969,-0.2985,-0.2993,-0.2993,-0.2987,-0.2984,-0.3003,-0.3005,-0.3008,-0.3019,-0.3007,-0.3009,-0.3011,-0.3061,-0.3061,-0.3061,0,0,0,0,0,0,-0.2898,-0.2907,-0.2981,-0.2947,-0.2957,-0.2969,-0.2987,-0.2987,-0.2992,-0.3001,-0.3,-0.299,-0.3001,-0.3005,-0.3018,-0.302,-0.301,-0.3012,-0.3061,-0.3061,-0.3061,-0.307,0,0,0,0,0,0,-0.2895,-0.2906,-0.2913,-0.2948,-0.2959,-0.3005,-0.2989,-0.299,-0.3002,-0.2998,-0.3004,-0.3004,-0.3,-0.3015,-0.302,-0.3023,-0.3014,-0.306,-0.3061,-0.3061,-0.307,-0.3071,-0.3071,0,0,0,0,0,-0.2891,-0.2905,-0.2913,-0.2922,-0.2969,-0.3006,-0.3011,-0.3012,-0.3004,-0.3008,-0.3007,-0.3003,-0.3019,-0.3017,-0.3023,-0.3027,-0.306,-0.3061,-0.3061,-0.3069,-0.307,-0.3071,0,0,0,0,0,0,-0.2858,-0.2905,-0.2914,-0.294,-0.2969,-0.3002,-0.3006,-0.3017,-0.3023,-0.3015,-0.3017,-0.3017,-0.3027,-0.303,-0.3028,-0.304,-0.3035,-0.3037,-0.304,-0.3041,-0.3042,-0.3038,-0.3016,0,0,0,0,0,-0.2858,-0.2877,-0.2924,-0.2941,-0.2958,-0.2985,-0.2999,-0.3007,-0.3023,-0.3023,-0.3029,-0.3031,-0.3037,-0.304,-0.3048,-0.3068,-0.3053,-0.3069,-0.307,-0.3071,-0.3071,-0.3059,-0.3058,-0.3062,-0.3062,-0.3062,0,0,-0.2847,-0.2877,-0.2886,-0.2935,-0.2955,-0.2984,-0.2987,-0.3012,-0.3029,-0.3026,-0.3039,-0.3041,-0.3044,-0.3053,-0.3058,-0.3054,-0.3059,-0.3071,-0.3072,-0.3071,-0.3059,-0.3059,-0.3058,-0.3062,-0.3062,-0.3062,0,0,-0.284,-0.2866,-0.2882,-0.2913,-0.2955,-0.2978,-0.2987,-0.3026,-0.303,-0.3056,-0.3048,-0.3048,-0.3071,-0.3064,-0.3065,-0.308,-0.3066,-0.3083,-0.3085,-0.3074,-0.3074,-0.3073,-0.304,-0.3036,-0.3081,-0.3081,-0.3081,0,-0.2825,-0.2858,-0.289,-0.2921,-0.2943,-0.2976,-0.3001,-0.3022,-0.3056,-0.3063,-0.3055,-0.3073,-0.3072,-0.3079,-0.3075,-0.3082,-0.3068,-0.3082,-0.3075,-0.3074,-0.3073,-0.3039,-0.3035,-0.3082,-0.3082,-0.3082,-0.3082,0,-0.2837,-0.2865,-0.2877,-0.2926,-0.2954,-0.2981,-0.3023,-0.3044,-0.3056,-0.3073,-0.3084,-0.3084,-0.3088,-0.3088,-0.3087,-0.3085,-0.3072,-0.3079,-0.3072,-0.3074,-0.3037,-0.3033,-0.3082,-0.3082,-0.3082,-0.3082,0,0,-0.2796,-0.2871,-0.2873,-0.2895,-0.296,-0.2982,-0.3019,-0.3057,-0.3071,-0.3091,-0.31,-0.3105,-0.3101,-0.3102,-0.3099,-0.3088,-0.3062,-0.3082,-0.3081,-0.3047,-0.3021,-0.2922,-0.2907,-0.3071,-0.3071,-0.3071,-0.2992,0,-0.2792,-0.2838,-0.2882,-0.2919,-0.2945,-0.2995,-0.3025,-0.3062,-0.3085,-0.3103,-0.3104,-0.311,-0.3109,-0.3105,-0.3097,-0.3081,-0.3054,-0.3082,-0.3026,-0.3024,-0.2934,-0.29,-0.2788,-0.2702,-0.2988,-0.2987,-0.2987,0,-0.2782,-0.2818,-0.2853,-0.2916,-0.2932,-0.2957,-0.3005,-0.304,-0.3081,-0.3098,-0.3111,-0.3118,-0.3112,-0.3104,-0.307,-0.309,-0.3051,-0.3031,-0.3027,-0.2929,-0.2916,-0.2749,-0.2683,-0.2661,-0.298,-0.298,-0.2981,0,-0.272,-0.2792,-0.2814,-0.2838,-0.2917,-0.2933,-0.2971,-0.3024,-0.3048,-0.3087,-0.3099,-0.3109,-0.31,-0.3077,-0.3035,-0.3055,-0.2982,-0.3003,-0.287,-0.2863,-0.2752,-0.2734,-0.2655,-0.2957,-0.2957,-0.2957,-0.2957,0,-0.2693,-0.2707,-0.2783,-0.2794,-0.2814,-0.2888,-0.291,-0.2955,-0.3011,-0.3028,-0.308,-0.3085,-0.3093,-0.3061,-0.3028,-0.2922,-0.297,-0.2853,-0.2832,-0.2749,-0.2733,-0.2697,-0.2727,-0.2954,-0.2955,-0.2955,-0.2956,0,-0.2608,-0.2667,-0.269,-0.2764,-0.2782,-0.279,-0.2865,-0.2884,-0.2955,-0.2978,-0.2989,-0.3051,-0.3011,-0.2989,-0.2938,-0.2887,-0.2754,-0.2759,-0.2647,-0.2613,-0.2466,-0.2501,-0.2396,-0.2331,-0.2602,-0.2599,-0.2596,0,-0.2564,-0.2568,-0.2635,-0.2643,-0.2669,-0.2704,-0.2728,-0.2827,-0.2858,-0.2947,-0.2947,-0.2944,-0.29,-0.2792,-0.271,-0.2599,-0.2619,-0.2441,-0.2452,-0.2419,-0.2445,-0.2477,-0.2434,-0.2307,-0.2302,-0.2298,-0.2295,0,-0.2465,-0.2489,-0.2508,-0.2527,-0.2549,-0.2579,-0.2628,-0.2648,-0.2762,-0.2788,-0.2803,-0.2775,-0.2694,-0.2542,-0.2417,-0.2351,-0.2378,-0.2356,-0.2358,-0.2223,-0.2219,-0.2158,-0.2399,-0.2261,-0.2265,-0.2267,-0.2269,-0.227,-0.237,-0.2356,-0.2381,-0.2383,-0.2411,-0.242,-0.2398,-0.2473,-0.2491,-0.2503,-0.2589,-0.251,-0.2426,-0.2231,-0.2157,-0.2015,-0.2103,-0.1971,-0.202,-0.2059,-0.198,-0.2126,-0.1948,-0.1949,-0.195,-0.1952,-0.1953,0,-0.2235,-0.2234,-0.2235,-0.2235,-0.2203,-0.2268,-0.2297,-0.2254,-0.2221,-0.2275,-0.2249,-0.217,-0.2004,-0.195,-0.1814,-0.1719,-0.1698,-0.1696,-0.1737,-0.171,-0.1852,-0.1823,-0.1565,-0.1565,-0.1565,-0.1565,-0.1565,-0.1565,-0.2167,-0.2113,-0.2113,-0.2013,-0.2009,-0.1918,-0.1897,-0.1863,-0.1867,-0.1806,-0.1798,-0.1818,-0.1783,-0.1844,-0.1692,-0.1604,-0.1586,-0.1524,-0.157,-0.1707,-0.1738,-0.1768,-0.1745,-0.1476,-0.1476,-0.1361,-0.136,-0.136]},{"header":{"parameterUnit":"m.s-1","parameterCategory":2,"la1":30.2991,"la2":30.254,"lo1":-89.0895,"lo2":-89.0444,"dy":0.0017,"dx":0.0017,"nx":28,"ny":28,"refTime":"2025-11-20T03:00:00:Z","depth":"0","parameterNumber":3,"parameterNumberName":"V-component_of_CURRENTS"},"data":[0,0,0,0,0,0,0,0,0,0,0,0,0,0,0,0,0,0,0,0,0,0,0,0,0,0,0,0,0,0,0,0,0,0,0,0,0,0,0,0,0,0,0,0,0,0,0,0,0,0,0,0,0,0,0,0,0,0,-0.0297,-0.0295,0,-0.0191,-0.019,-0.0188,-0.011,-0.0109,-0.0108,-0.0108,0.0048,0.0051,0.0055,0,0,0,0,0,0,0,0,0,0,0,0,0,-0.0374,-0.0373,-0.0297,-0.0295,-0.0294,-0.0191,-0.019,-0.0188,-0.011,-0.0109,-0.0108,-0.0108,0.0047,0.0051,0.0055,0,0,0,0,0,0,0,0,0,0,0,0,0,-0.0311,-0.0373,-0.0297,-0.0244,-0.0238,-0.0191,-0.0189,-0.0188,-0.011,-0.0109,-0.0108,-0.0107,0.0045,0.0051,0.0056,0.0071,0,0,0.0072,0.0075,0,0,0,0,0,0,0,0,-0.0315,-0.0308,-0.0253,-0.0247,-0.0241,-0.0163,-0.016,-0.0099,-0.011,-0.0157,-0.0108,-0.0107,-0.002,-0.0009,0.001,0.0079,0.0085,0.0073,0.0076,0.0078,0.008,0,0,0,0,0,0,0,-0.0319,-0.0312,-0.0254,-0.0251,-0.0244,-0.0206,-0.0196,-0.0148,-0.0093,-0.0153,-0.0147,-0.0138,-0.0016,0.0005,0.0014,0.0088,0.0073,0.0078,0.0081,0.0083,0.0192,0.0192,0,0,0,0,0,0,-0.0338,-0.0316,-0.0257,-0.0251,-0.0277,-0.0205,-0.0194,-0.0188,-0.0094,-0.008,-0.0139,-0.0134,-0.0005,0.0008,0.002,0.0049,0.0078,0.0083,0.0087,0.0192,0.0192,0.0192,0,0,0,0,0,0,-0.034,-0.0334,-0.0261,-0.0281,-0.027,-0.0205,-0.0199,-0.0187,-0.0165,-0.0084,-0.0068,-0.013,-0.0004,0.0013,0.0058,0.0055,0.0086,0.0091,0.0193,0.0192,0.0192,0.0103,0,0,0,0,0,0,-0.0343,-0.0336,-0.034,-0.0283,-0.0269,-0.0244,-0.0199,-0.0185,-0.0161,-0.0155,-0.0071,-0.0056,-0.0002,0.0049,0.0063,0.0063,0.0095,0.0193,0.0193,0.0192,0.0106,0.0099,0.0093,0,0,0,0,0,-0.0346,-0.0361,-0.0341,-0.0334,-0.0277,-0.0244,-0.0234,-0.0184,-0.0162,-0.016,-0.0103,-0.0058,0.0056,0.0053,0.007,0.0071,0.0194,0.0193,0.0192,0.0109,0.0101,0.0093,0,0,0,0,0,0,-0.0397,-0.0352,-0.033,-0.033,-0.0294,-0.0232,-0.0227,-0.0193,-0.0147,-0.014,-0.0063,-0.0044,-0.0006,0.0042,0.0038,0.01,0.0132,0.0135,0.0063,0.0056,0.005,0.0038,0.01,0,0,0,0,0,-0.0412,-0.041,-0.0359,-0.0359,-0.0346,-0.0288,-0.027,-0.0236,-0.0188,-0.0166,-0.0108,-0.0047,0.0003,0.0036,0.0084,0.0119,0.0174,0.0131,0.0125,0.0119,0.012,0.019,0.019,0.0189,0.0189,0.0189,0,0,-0.043,-0.0407,-0.0404,-0.037,-0.0337,-0.0328,-0.0275,-0.0254,-0.0241,-0.0157,-0.0126,-0.0071,0.0005,0.0042,0.0064,0.0084,0.0148,0.0118,0.0112,0.0117,0.0189,0.0189,0.0189,0.0189,0.0189,0.0189,0,0,-0.0473,-0.0447,-0.0461,-0.0439,-0.0401,-0.0364,-0.0363,-0.0307,-0.0277,-0.0242,-0.0179,-0.0128,-0.0053,0.0004,0.0042,0.003,0.0106,0.0045,0.0013,0.0079,0.008,0.0081,0.0148,0.0156,0.0048,0.0048,0.0048,0,-0.0498,-0.0505,-0.0461,-0.0468,-0.0455,-0.0387,-0.0397,-0.0358,-0.0294,-0.0267,-0.0246,-0.0128,-0.0069,-0.0008,-0.0012,0.0017,0.0067,0.0033,0.0071,0.0073,0.0076,0.0144,0.0154,0.0044,0.0044,0.0045,0.0045,0,-0.0547,-0.0553,-0.0561,-0.0545,-0.0526,-0.0524,-0.0467,-0.0441,-0.0397,-0.0346,-0.0283,-0.0201,-0.0127,-0.0102,-0.0058,-0.0008,0.0024,0.0047,0.0087,0.0071,0.0144,0.0156,0.0038,0.0039,0.0041,0.0042,0,0,-0.0601,-0.0598,-0.0599,-0.0607,-0.0567,-0.0556,-0.0536,-0.049,-0.0466,-0.0397,-0.0357,-0.027,-0.0216,-0.017,-0.0103,-0.004,0.002,0.0006,0.0012,0.0066,0.017,0.0228,0.0247,0.0049,0.005,0.0052,0.0212,0,-0.0652,-0.0695,-0.0669,-0.0694,-0.0709,-0.0644,-0.063,-0.0576,-0.0512,-0.0456,-0.0356,-0.0297,-0.0243,-0.0208,-0.0139,-0.0017,0.0048,-0.0026,0.0184,0.019,0.0239,0.0262,0.0299,0.0448,0.0224,0.0226,0.0228,0,-0.0706,-0.0728,-0.0774,-0.077,-0.0768,-0.0768,-0.072,-0.0695,-0.0595,-0.0544,-0.0459,-0.0375,-0.0269,-0.0229,-0.003,-0.008,0.0032,0.0127,0.0136,0.0231,0.027,0.043,0.0479,0.0619,0.0247,0.0245,0.0244,0,-0.0771,-0.0794,-0.0836,-0.0836,-0.0822,-0.0822,-0.0802,-0.0724,-0.0694,-0.0594,-0.0553,-0.0418,-0.0336,-0.0191,0.0009,-0.0012,0.0239,0.0235,0.0395,0.04,0.0496,0.0507,0.0703,0.037,0.037,0.0369,0.0369,0,-0.0836,-0.0864,-0.0872,-0.0895,-0.093,-0.089,-0.0891,-0.0845,-0.0769,-0.0721,-0.0606,-0.0525,-0.0321,-0.015,0.0005,0.0254,0.0241,0.0403,0.0451,0.0466,0.0472,0.0649,0.0693,0.0375,0.0374,0.0373,0.0372,0,-0.0899,-0.0906,-0.0953,-0.0963,-0.0966,-0.0988,-0.0964,-0.0953,-0.0874,-0.0805,-0.0777,-0.0587,-0.0355,-0.0135,0.0137,0.0266,0.0585,0.057,0.0575,0.0621,0.0867,0.0902,0.1154,0.1248,0.0755,0.0757,0.0759,0,-0.0934,-0.097,-0.1012,-0.1044,-0.1052,-0.1072,-0.108,-0.1017,-0.0991,-0.0827,-0.0794,-0.0559,-0.0362,0.0056,0.033,0.0628,0.073,0.0819,0.0781,0.0905,0.0981,0.1,0.1062,0.0875,0.0878,0.088,0.0882,0,-0.0998,-0.1013,-0.1052,-0.1126,-0.1156,-0.1179,-0.1178,-0.1173,-0.1068,-0.097,-0.0782,-0.0605,-0.019,0.0182,0.0561,0.0735,0.0923,0.0875,0.1015,0.1106,0.1133,0.1237,0.074,0.0903,0.0901,0.0899,0.0898,0.0898,-0.1032,-0.1081,-0.1135,-0.1196,-0.1236,-0.1264,-0.1268,-0.1219,-0.1141,-0.095,-0.0777,-0.045,0.0043,0.0593,0.0788,0.1174,0.1124,0.1275,0.1314,0.1327,0.1405,0.095,0.1155,0.1154,0.1154,0.1153,0.1153,0,-0.1069,-0.1124,-0.1198,-0.1266,-0.1314,-0.1314,-0.1309,-0.1257,-0.1138,-0.0906,-0.0667,-0.0063,0.0421,0.0855,0.1383,0.159,0.1627,0.1693,0.1729,0.1775,0.1398,0.1389,0.1641,0.1641,0.1641,0.1641,0.1641,0.164,-0.109,-0.1169,-0.1212,-0.1304,-0.1347,-0.1365,-0.1351,-0.1227,-0.105,-0.0638,-0.026,0.0056,0.0661,0.145,0.1924,0.1973,0.2138,0.2133,0.2222,0.1947,0.191,0.1875,0.1879,0.223,0.2231,0.2591,0.2594,0.2597]}],[{"header":{"parameterUnit":"m.s-1","parameterCategory":2,"la1":30.2991,"la2":30.254,"lo1":-89.0895,"lo2":-89.0444,"dy":0.0017,"dx":0.0017,"nx":28,"ny":28,"refTime":"2025-11-20T03:00:00:Z","depth":"2","parameterNumber":2,"parameterNumberName":"U-component_of_CURRENTS"},"data":[0,0,0,0,0,0,0,0,0,0,0,0,0,0,0,0,0,0,0,0,0,0,0,0,0,0,0,0,0,0,0,0,0,0,0,0,0,0,0,0,0,0,0,0,0,0,0,0,0,0,0,0,0,0,0,0,0,0,-0.2561,-0.2562,0,-0.2614,-0.2614,-0.2615,-0.2602,-0.2601,-0.26,-0.2599,-0.2625,-0.2626,-0.2627,0,0,0,0,0,0,0,0,0,0,0,0,0,-0.2463,-0.2464,-0.2561,-0.2562,-0.2563,-0.2614,-0.2614,-0.2615,-0.2602,-0.2601,-0.26,-0.2599,-0.2624,-0.2626,-0.2628,0,0,0,0,0,0,0,0,0,0,0,0,0,-0.2508,-0.2465,-0.2561,-0.2564,-0.2565,-0.2614,-0.2614,-0.2615,-0.2602,-0.2601,-0.26,-0.2599,-0.2624,-0.2626,-0.2628,-0.2666,0,0,-0.2634,-0.2635,0,0,0,0,0,0,0,0,-0.2505,-0.2511,-0.2563,-0.2564,-0.2565,-0.2602,-0.2589,-0.2631,-0.2603,-0.2586,-0.2599,-0.2598,-0.2617,-0.2619,-0.263,-0.2668,-0.2669,-0.2635,-0.2636,-0.2637,-0.2638,0,0,0,0,0,0,0,-0.2502,-0.2509,-0.258,-0.2564,-0.2565,-0.2567,-0.2572,-0.2597,-0.2606,-0.2587,-0.2587,-0.2597,-0.2617,-0.2628,-0.263,-0.2669,-0.2635,-0.2637,-0.2638,-0.2639,-0.27,-0.27,0,0,0,0,0,0,-0.2501,-0.2506,-0.2578,-0.2582,-0.2534,-0.257,-0.2575,-0.259,-0.2606,-0.2608,-0.2598,-0.2596,-0.2624,-0.2628,-0.2631,-0.2653,-0.2637,-0.2639,-0.264,-0.2699,-0.27,-0.27,0,0,0,0,0,0,-0.2498,-0.2507,-0.2576,-0.2546,-0.2555,-0.2573,-0.259,-0.2591,-0.2602,-0.2614,-0.2615,-0.2606,-0.2624,-0.2628,-0.2648,-0.2654,-0.264,-0.2642,-0.2699,-0.2699,-0.27,-0.2712,0,0,0,0,0,0,-0.2495,-0.2506,-0.2513,-0.2546,-0.2557,-0.2602,-0.2591,-0.2593,-0.2611,-0.2609,-0.2623,-0.2623,-0.2623,-0.2645,-0.265,-0.2657,-0.2644,-0.2699,-0.2699,-0.27,-0.2711,-0.2713,-0.2714,0,0,0,0,0,-0.2492,-0.2505,-0.2513,-0.2522,-0.2567,-0.2603,-0.2608,-0.2615,-0.2613,-0.262,-0.2626,-0.2623,-0.2652,-0.2647,-0.2653,-0.2661,-0.2698,-0.2699,-0.27,-0.271,-0.2712,-0.2714,0,0,0,0,0,0,-0.2463,-0.2506,-0.2515,-0.254,-0.2569,-0.2601,-0.2609,-0.2622,-0.2636,-0.2631,-0.2637,-0.2639,-0.2656,-0.2661,-0.2656,-0.2678,-0.2671,-0.2673,-0.2677,-0.2679,-0.2681,-0.2677,-0.2645,0,0,0,0,0,-0.2464,-0.2483,-0.2525,-0.2543,-0.2558,-0.2587,-0.2602,-0.2614,-0.2633,-0.2638,-0.2649,-0.2657,-0.2667,-0.2674,-0.2684,-0.2708,-0.2693,-0.2713,-0.2715,-0.2716,-0.2716,-0.2705,-0.2706,-0.2702,-0.2702,-0.2702,0,0,-0.2456,-0.2483,-0.2492,-0.2538,-0.2558,-0.2588,-0.2592,-0.2619,-0.264,-0.264,-0.2663,-0.2668,-0.2675,-0.2691,-0.2698,-0.2694,-0.2706,-0.2717,-0.2718,-0.2717,-0.2706,-0.2706,-0.2706,-0.2703,-0.2703,-0.2703,0,0,-0.2454,-0.2477,-0.2494,-0.2524,-0.2564,-0.2587,-0.2598,-0.2637,-0.2646,-0.2678,-0.2674,-0.2681,-0.271,-0.2706,-0.271,-0.273,-0.2715,-0.2735,-0.2742,-0.2731,-0.2731,-0.2731,-0.2698,-0.2694,-0.2735,-0.2735,-0.2735,0,-0.2443,-0.2474,-0.2503,-0.2533,-0.2556,-0.2588,-0.2615,-0.2638,-0.2677,-0.2687,-0.2683,-0.2712,-0.2714,-0.2727,-0.2726,-0.2733,-0.2719,-0.2734,-0.2732,-0.2732,-0.2732,-0.2698,-0.2694,-0.2735,-0.2735,-0.2735,-0.2735,0,-0.2458,-0.2486,-0.2498,-0.2546,-0.2575,-0.2603,-0.2644,-0.2669,-0.2686,-0.2706,-0.2726,-0.2729,-0.2741,-0.2742,-0.2741,-0.2744,-0.273,-0.2736,-0.2727,-0.2733,-0.2696,-0.2692,-0.2736,-0.2736,-0.2736,-0.2736,0,0,-0.2422,-0.2495,-0.2498,-0.2522,-0.2585,-0.2608,-0.2649,-0.2689,-0.2709,-0.2735,-0.2752,-0.2762,-0.2761,-0.2764,-0.2762,-0.2752,-0.2729,-0.2744,-0.2743,-0.2708,-0.2689,-0.26,-0.2587,-0.2737,-0.2737,-0.2737,-0.2659,0,-0.2422,-0.2471,-0.2512,-0.2554,-0.2582,-0.263,-0.2663,-0.2703,-0.2731,-0.2756,-0.276,-0.2775,-0.2771,-0.2772,-0.2764,-0.2746,-0.2722,-0.2748,-0.2691,-0.2689,-0.2607,-0.2581,-0.2404,-0.2313,-0.2655,-0.2654,-0.2654,0,-0.2418,-0.2454,-0.2494,-0.2559,-0.2575,-0.2604,-0.2657,-0.2695,-0.2741,-0.2762,-0.2781,-0.279,-0.2787,-0.2779,-0.2743,-0.2762,-0.2723,-0.2701,-0.2697,-0.2608,-0.2593,-0.2366,-0.2293,-0.2647,-0.2647,-0.2648,-0.2648,0,-0.2363,-0.2437,-0.2464,-0.2489,-0.2569,-0.2589,-0.2629,-0.2686,-0.2713,-0.2761,-0.2776,-0.2789,-0.2782,-0.2758,-0.2715,-0.273,-0.2661,-0.2675,-0.2552,-0.2545,-0.2378,-0.2356,-0.2631,-0.2631,-0.2632,-0.2632,-0.2632,0,-0.2341,-0.2361,-0.2439,-0.2454,-0.2482,-0.2554,-0.2585,-0.2632,-0.269,-0.271,-0.2765,-0.2769,-0.2777,-0.2747,-0.2711,-0.2607,-0.2652,-0.2537,-0.2516,-0.2375,-0.2355,-0.2641,-0.2643,-0.2629,-0.263,-0.263,-0.2631,0,-0.2266,-0.2325,-0.2355,-0.2433,-0.2454,-0.247,-0.2548,-0.257,-0.2643,-0.2671,-0.2684,-0.274,-0.27,-0.2683,-0.2629,-0.2578,-0.2506,-0.2455,-0.2277,-0.2236,-0.2398,-0.2402,-0.2311,-0.2307,-0.2304,-0.2301,-0.2299,0,-0.2229,-0.2237,-0.2311,-0.2323,-0.2353,-0.2396,-0.2421,-0.252,-0.255,-0.2638,-0.2636,-0.2637,-0.2588,-0.2485,-0.2405,-0.23,-0.2394,-0.2085,-0.2081,-0.2375,-0.2365,-0.2374,-0.2382,-0.1858,-0.1852,-0.1848,-0.1844,0,-0.2142,-0.2169,-0.2193,-0.2218,-0.2245,-0.2277,-0.2328,-0.2344,-0.2454,-0.2475,-0.2481,-0.245,-0.2376,-0.219,-0.2082,-0.2011,-0.2095,-0.1986,-0.2324,-0.1976,-0.1944,-0.1936,-0.1959,-0.1802,-0.1807,-0.181,-0.1812,-0.1814,-0.2058,-0.205,-0.2079,-0.2087,-0.2119,-0.2124,-0.2098,-0.2161,-0.2169,-0.216,-0.2248,-0.2134,-0.211,-0.1837,-0.1733,-0.1663,-0.1809,-0.1733,-0.1749,-0.1769,-0.174,-0.1705,-0.1512,-0.1514,-0.1516,-0.1518,-0.1519,0,-0.1938,-0.1941,-0.1945,-0.1948,-0.1919,-0.1985,-0.2001,-0.1942,-0.1885,-0.1906,-0.1866,-0.1647,-0.1515,-0.15,-0.1321,-0.1283,-0.1288,-0.1235,-0.1248,-0.1289,-0.1325,-0.1276,-0.0923,-0.0921,-0.0919,-0.0918,0,0,-0.1877,-0.183,-0.1828,-0.1734,-0.1733,-0.164,-0.1609,-0.1545,-0.1517,-0.1397,-0.1336,-0.1421,-0.1443,-0.1183,-0.1122,-0.0992,-0.1131,-0.0941,-0.1417,-0.1472,-0.1507,-0.1607,-0.1575,0,0,0,0,0]},{"header":{"parameterUnit":"m.s-1","parameterCategory":2,"la1":30.2991,"la2":30.254,"lo1":-89.0895,"lo2":-89.0444,"dy":0.0017,"dx":0.0017,"nx":28,"ny":28,"refTime":"2025-11-20T03:00:00:Z","depth":"2","parameterNumber":3,"parameterNumberName":"V-component_of_CURRENTS"},"data":[0,0,0,0,0,0,0,0,0,0,0,0,0,0,0,0,0,0,0,0,0,0,0,0,0,0,0,0,0,0,0,0,0,0,0,0,0,0,0,0,0,0,0,0,0,0,0,0,0,0,0,0,0,0,0,0,0,0,-0.0329,-0.0328,0,-0.0238,-0.0237,-0.0236,-0.0166,-0.0165,-0.0165,-0.0164,-0.0031,-0.0028,-0.0025,0,0,0,0,0,0,0,0,0,0,0,0,0,-0.0393,-0.0392,-0.0329,-0.0328,-0.0327,-0.0238,-0.0237,-0.0236,-0.0166,-0.0165,-0.0164,-0.0164,-0.0032,-0.0028,-0.0025,0,0,0,0,0,0,0,0,0,0,0,0,0,-0.0339,-0.0392,-0.033,-0.0282,-0.0277,-0.0239,-0.0237,-0.0235,-0.0166,-0.0165,-0.0164,-0.0163,-0.0033,-0.0029,-0.0024,-0.0013,0,0,-0.001,-0.0009,0,0,0,0,0,0,0,0,-0.0342,-0.0337,-0.029,-0.0286,-0.028,-0.0213,-0.021,-0.0159,-0.0166,-0.0207,-0.0164,-0.0163,-0.0089,-0.008,-0.0064,-0.0007,-0.0002,-0.001,-0.0007,-0.0005,-0.0004,0,0,0,0,0,0,0,-0.0346,-0.034,-0.0292,-0.0289,-0.0283,-0.0249,-0.024,-0.02,-0.0153,-0.0204,-0.0199,-0.019,-0.0086,-0.0069,-0.006,0.0,-0.001,-0.0006,-0.0003,-0.0002,0.0088,0.0088,0,0,0,0,0,0,-0.0363,-0.0344,-0.0295,-0.029,-0.0311,-0.0249,-0.0239,-0.0235,-0.0154,-0.0141,-0.0191,-0.0187,-0.0077,-0.0066,-0.0055,-0.0027,-0.0005,-0.0001,0.0001,0.0088,0.0088,0.0088,0,0,0,0,0,0,-0.0365,-0.036,-0.0299,-0.0315,-0.0305,-0.0249,-0.0244,-0.0233,-0.0214,-0.0145,-0.0131,-0.0183,-0.0076,-0.0062,-0.0023,-0.0022,0.0001,0.0005,0.0089,0.0088,0.0088,0.0022,0,0,0,0,0,0,-0.0367,-0.0361,-0.0366,-0.0317,-0.0305,-0.0284,-0.0245,-0.0232,-0.0211,-0.0205,-0.0134,-0.012,-0.0074,-0.0031,-0.0019,-0.0015,0.0008,0.0089,0.0089,0.0088,0.0024,0.0019,0.0015,0,0,0,0,0,-0.037,-0.0383,-0.0367,-0.0361,-0.0313,-0.0285,-0.0276,-0.0231,-0.0212,-0.021,-0.0161,-0.0122,-0.0026,-0.0027,-0.0014,-0.0009,0.0089,0.0089,0.0088,0.0027,0.002,0.0015,0,0,0,0,0,0,-0.0413,-0.0376,-0.0357,-0.0358,-0.0327,-0.0273,-0.0269,-0.0239,-0.0199,-0.0193,-0.0127,-0.0111,-0.0078,-0.0038,-0.0041,0.0014,0.0038,0.004,-0.0013,-0.0019,-0.0023,-0.0033,0.0012,0,0,0,0,0,-0.0426,-0.0426,-0.0382,-0.0384,-0.0372,-0.0322,-0.0306,-0.0277,-0.0235,-0.0216,-0.0167,-0.0115,-0.0071,-0.0042,-0.0002,0.003,0.0076,0.0041,0.0036,0.0032,0.0033,0.0098,0.0099,0.0085,0.0085,0.0085,0,0,-0.0442,-0.0423,-0.0421,-0.0393,-0.0365,-0.0356,-0.031,-0.0293,-0.0279,-0.0209,-0.018,-0.0134,-0.0069,-0.0035,-0.0016,0.0001,0.0059,0.0031,0.0027,0.003,0.0097,0.0099,0.01,0.0085,0.0085,0.0085,0,0,-0.0479,-0.0459,-0.0471,-0.0451,-0.0419,-0.0387,-0.0386,-0.0337,-0.031,-0.0279,-0.0225,-0.0179,-0.0116,-0.0064,-0.003,-0.0038,0.0024,-0.0028,-0.005,0.0012,0.0014,0.0017,0.007,0.0077,-0.0023,-0.0023,-0.0023,0,-0.05,-0.0507,-0.047,-0.0476,-0.0465,-0.0406,-0.0413,-0.0378,-0.0322,-0.0298,-0.0281,-0.0178,-0.0127,-0.0068,-0.007,-0.0047,-0.0006,-0.0034,0.0006,0.001,0.0013,0.0068,0.0077,-0.0026,-0.0026,-0.0026,-0.0025,0,-0.0542,-0.0546,-0.0553,-0.0539,-0.0522,-0.052,-0.0469,-0.0445,-0.0406,-0.0361,-0.0304,-0.0232,-0.0167,-0.0144,-0.0107,-0.0057,-0.0036,-0.0014,0.002,0.0011,0.0068,0.0079,-0.0031,-0.003,-0.0029,-0.0028,0,0,-0.0588,-0.0585,-0.0585,-0.0592,-0.0556,-0.0547,-0.0525,-0.0482,-0.0461,-0.0398,-0.0361,-0.0281,-0.0235,-0.0194,-0.0136,-0.0076,-0.0019,-0.004,-0.0036,0.001,0.0114,0.0141,0.0156,0.0009,0.0011,0.0012,0.0142,0,-0.0629,-0.0666,-0.0642,-0.0662,-0.0674,-0.0617,-0.0602,-0.0553,-0.0498,-0.0447,-0.0354,-0.0302,-0.0254,-0.0223,-0.0157,-0.0054,0.0007,-0.0057,0.0119,0.0124,0.0148,0.0169,0.0132,0.0246,0.0153,0.0155,0.0156,0,-0.0674,-0.0693,-0.0731,-0.0727,-0.0725,-0.0724,-0.0682,-0.0658,-0.0567,-0.0523,-0.0445,-0.037,-0.0271,-0.0234,-0.0058,-0.0103,-0.0004,0.0078,0.0086,0.0143,0.0172,0.0243,0.027,0.0175,0.0173,0.0172,0.0171,0,-0.0731,-0.0749,-0.0785,-0.0785,-0.0771,-0.0771,-0.0753,-0.0684,-0.0659,-0.0566,-0.0532,-0.0406,-0.0337,-0.0202,-0.0031,-0.0044,0.0167,0.0173,0.0293,0.0296,0.0317,0.0319,0.0298,0.0298,0.0298,0.0297,0.0297,0,-0.0786,-0.081,-0.0818,-0.0838,-0.087,-0.0833,-0.0838,-0.0796,-0.073,-0.0695,-0.0579,-0.0514,-0.0325,-0.0179,-0.0037,0.0167,0.0168,0.0298,0.0337,0.0291,0.029,0.0268,0.0263,0.0302,0.0301,0.03,0.0299,0,-0.0841,-0.0846,-0.0889,-0.0898,-0.0902,-0.0924,-0.0908,-0.0902,-0.0831,-0.078,-0.0753,-0.0584,-0.0389,-0.019,0.0049,0.0163,0.0351,0.0423,0.0353,0.0382,0.0435,0.0425,0.0561,0.0564,0.0565,0.0567,0.0568,0,-0.0872,-0.0903,-0.0944,-0.0976,-0.0985,-0.1006,-0.1018,-0.0963,-0.0946,-0.0813,-0.0789,-0.0592,-0.0433,-0.0076,0.0162,0.0424,0.0425,0.053,0.0501,0.0441,0.0466,0.0452,0.044,0.0503,0.0503,0.0504,0.0504,0,-0.0929,-0.0944,-0.098,-0.1053,-0.1085,-0.1112,-0.1118,-0.1119,-0.1035,-0.0958,-0.0815,-0.0673,-0.0331,-0.0043,0.0284,0.043,0.0481,0.0549,0.0531,0.0433,0.0395,0.0415,0.0404,0.0509,0.0508,0.0508,0.0508,0.0508,-0.0961,-0.1007,-0.1059,-0.1121,-0.1164,-0.1199,-0.1209,-0.1176,-0.1123,-0.0977,-0.0845,-0.0588,-0.0336,0.0147,0.0364,0.0568,0.0565,0.0609,0.0604,0.0599,0.0561,0.0527,0.0659,0.0659,0.066,0.066,0.066,0,-0.0998,-0.105,-0.1121,-0.1191,-0.1243,-0.1247,-0.1255,-0.1217,-0.1133,-0.0966,-0.0786,-0.046,-0.014,0.0136,0.0458,0.0635,0.0612,0.0661,0.0588,0.0583,0.0578,0.0536,0.0629,0.063,0.063,0.063,0,0,-0.102,-0.1095,-0.1135,-0.1231,-0.1278,-0.1308,-0.1303,-0.1208,-0.1077,-0.0881,-0.0676,-0.0437,-0.0111,0.0105,0.0322,0.0488,0.0487,0.0503,0.0509,0.0391,0.0384,0.0531,0.0458,0,0,0,0,0]}],[{"header":{"parameterUnit":"m.s-1","parameterCategory":2,"la1":30.2991,"la2":30.254,"lo1":-89.0895,"lo2":-89.0444,"dy":0.0017,"dx":0.0017,"nx":28,"ny":28,"refTime":"2025-11-20T03:00:00:Z","depth":"4","parameterNumber":2,"parameterNumberName":"U-component_of_CURRENTS"},"data":[0,0,0,0,0,0,0,0,0,0,0,0,0,0,0,0,0,0,0,0,0,0,0,0,0,0,0,0,0,0,0,0,0,0,0,0,0,0,0,0,0,0,0,0,0,0,0,0,0,0,0,0,0,0,0,0,0,0,-0.1795,-0.1796,0,-0.1879,-0.188,-0.1881,-0.1931,-0.1932,-0.1932,-0.1932,-0.203,-0.2032,-0.2034,0,0,0,0,0,0,0,0,0,0,0,0,0,-0.1682,-0.1684,-0.1795,-0.1796,-0.1797,-0.1879,-0.188,-0.1881,-0.1931,-0.1932,-0.1932,-0.1932,-0.2029,-0.2032,-0.2034,0,0,0,0,0,0,0,0,0,0,0,0,0,-0.1744,-0.1684,-0.1794,-0.1833,-0.1837,-0.1879,-0.188,-0.1881,-0.1931,-0.1932,-0.1932,-0.1933,-0.2028,-0.2031,-0.2035,-0.2045,0,0,-0.2045,-0.2047,0,0,0,0,0,0,0,0,-0.174,-0.1748,-0.1826,-0.183,-0.1835,-0.1896,-0.1876,-0.1937,-0.1931,-0.1894,-0.1932,-0.1933,-0.1987,-0.1994,-0.2006,-0.205,-0.2054,-0.2045,-0.2048,-0.2049,-0.205,0,0,0,0,0,0,0,-0.1736,-0.1745,-0.1827,-0.1827,-0.1833,-0.1848,-0.1857,-0.1888,-0.1936,-0.1897,-0.1901,-0.1913,-0.1989,-0.2003,-0.2009,-0.2056,-0.2045,-0.2048,-0.2051,-0.2052,-0.2163,-0.2164,0,0,0,0,0,0,-0.1728,-0.1741,-0.1824,-0.1829,-0.179,-0.1849,-0.186,-0.1875,-0.1935,-0.1945,-0.1912,-0.1915,-0.1997,-0.2005,-0.2013,-0.2085,-0.2049,-0.2052,-0.2054,-0.2162,-0.2164,-0.2165,0,0,0,0,0,0,-0.1725,-0.1734,-0.1821,-0.1788,-0.18,-0.1851,-0.1868,-0.1877,-0.1922,-0.1947,-0.1957,-0.1952,-0.1998,-0.2008,-0.2063,-0.2087,-0.2054,-0.2057,-0.2161,-0.2163,-0.2164,-0.2193,0,0,0,0,0,0,-0.1721,-0.1733,-0.1756,-0.1787,-0.1801,-0.1862,-0.1868,-0.1878,-0.1927,-0.1932,-0.1984,-0.1991,-0.1999,-0.2058,-0.2066,-0.2091,-0.2059,-0.216,-0.2162,-0.2164,-0.2191,-0.2195,-0.2199,0,0,0,0,0,-0.1717,-0.1739,-0.1756,-0.1767,-0.1826,-0.1863,-0.1872,-0.1908,-0.1928,-0.1951,-0.1987,-0.1991,-0.2074,-0.2062,-0.2072,-0.2097,-0.2159,-0.2162,-0.2164,-0.2189,-0.2194,-0.2199,0,0,0,0,0,0,-0.1704,-0.1747,-0.1767,-0.1803,-0.1839,-0.1872,-0.1901,-0.1927,-0.1974,-0.1989,-0.2011,-0.2021,-0.2074,-0.2084,-0.2069,-0.2133,-0.2115,-0.2119,-0.2131,-0.2136,-0.214,-0.2133,-0.2062,0,0,0,0,0,-0.171,-0.174,-0.178,-0.1812,-0.1832,-0.1874,-0.1901,-0.1927,-0.1966,-0.1989,-0.2025,-0.2059,-0.2085,-0.2111,-0.2135,-0.2179,-0.2161,-0.2199,-0.2203,-0.2206,-0.2206,-0.2199,-0.2202,-0.2171,-0.2171,-0.2171,0,0,-0.1715,-0.1743,-0.1762,-0.1812,-0.1844,-0.188,-0.1892,-0.194,-0.1976,-0.1991,-0.206,-0.2081,-0.21,-0.2142,-0.2167,-0.2158,-0.2204,-0.2209,-0.2212,-0.221,-0.2202,-0.2204,-0.2207,-0.2173,-0.2172,-0.2172,0,0,-0.1727,-0.1765,-0.1792,-0.1826,-0.188,-0.1904,-0.1926,-0.198,-0.2012,-0.2073,-0.2085,-0.2119,-0.2178,-0.2185,-0.2196,-0.2239,-0.2224,-0.2254,-0.2274,-0.2268,-0.227,-0.2272,-0.2242,-0.224,-0.2258,-0.2258,-0.2258,0,-0.1734,-0.1772,-0.1806,-0.184,-0.1873,-0.1919,-0.1955,-0.1993,-0.2061,-0.2087,-0.2101,-0.2173,-0.2191,-0.2224,-0.2236,-0.2247,-0.2236,-0.2254,-0.2272,-0.2273,-0.2274,-0.2243,-0.2242,-0.226,-0.226,-0.2259,-0.2259,0,-0.1756,-0.1801,-0.1821,-0.1879,-0.1917,-0.1958,-0.2008,-0.2057,-0.2104,-0.2135,-0.2194,-0.2216,-0.2253,-0.2264,-0.2267,-0.229,-0.2275,-0.2275,-0.2256,-0.2279,-0.2245,-0.2243,-0.2262,-0.2261,-0.2261,-0.2261,0,0,-0.1731,-0.182,-0.1831,-0.1866,-0.1943,-0.1973,-0.2037,-0.2095,-0.2136,-0.2196,-0.2238,-0.2279,-0.2293,-0.2305,-0.2312,-0.2311,-0.2304,-0.2303,-0.2302,-0.2267,-0.2277,-0.2132,-0.2115,-0.2313,-0.2313,-0.2313,-0.2245,0,-0.1741,-0.1806,-0.1851,-0.192,-0.1955,-0.2019,-0.2071,-0.2131,-0.2183,-0.2235,-0.2261,-0.2304,-0.2308,-0.2328,-0.2329,-0.2317,-0.2302,-0.2321,-0.2266,-0.2263,-0.2127,-0.2109,-0.2313,-0.2243,-0.2243,-0.2242,-0.2242,0,-0.1739,-0.1786,-0.1853,-0.1941,-0.1964,-0.2014,-0.2099,-0.2153,-0.2226,-0.2265,-0.231,-0.2333,-0.2353,-0.2348,-0.2329,-0.2346,-0.2313,-0.2293,-0.229,-0.2142,-0.2113,-0.2219,-0.2237,-0.2238,-0.2238,-0.2238,-0.2238,0,-0.1686,-0.1783,-0.1838,-0.187,-0.1975,-0.2022,-0.2081,-0.2163,-0.2204,-0.2284,-0.2312,-0.2348,-0.2361,-0.2345,-0.2311,-0.2327,-0.2268,-0.228,-0.2112,-0.2101,-0.2242,-0.2241,-0.2247,-0.2247,-0.2247,-0.2247,-0.2248,0,-0.1657,-0.1704,-0.1824,-0.1852,-0.1916,-0.2003,-0.2071,-0.2134,-0.2214,-0.2242,-0.2321,-0.2326,-0.2363,-0.2339,-0.2309,-0.2187,-0.2262,-0.2097,-0.2069,-0.2254,-0.2255,-0.2238,-0.2238,-0.2245,-0.2245,-0.2246,-0.2246,0,-0.158,-0.1664,-0.173,-0.1852,-0.1892,-0.1938,-0.2054,-0.2089,-0.2185,-0.2222,-0.2245,-0.2307,-0.2269,-0.227,-0.2227,-0.2154,-0.2074,-0.2011,-0.2189,-0.2176,-0.1913,-0.1916,-0.1813,-0.1807,-0.1802,-0.1798,-0.1795,0,-0.154,-0.157,-0.1707,-0.1743,-0.1803,-0.1889,-0.1935,-0.2055,-0.2084,-0.218,-0.217,-0.2185,-0.22,-0.2005,-0.2042,-0.1951,-0.193,-0.1878,-0.1909,-0.1883,-0.1867,-0.1877,-0.1886,-0.1787,-0.1786,-0.1784,-0.1783,0,-0.1455,-0.1521,-0.1574,-0.1649,-0.1712,-0.1769,-0.1846,-0.1849,-0.1965,-0.2076,-0.2018,-0.1983,-0.1931,-0.1888,-0.1821,-0.1769,-0.1911,-0.1826,-0.1837,-0.1866,-0.185,-0.1842,-0.1856,-0.1766,-0.1768,-0.177,-0.1771,0,-0.1388,-0.1402,-0.1479,-0.1525,-0.1601,-0.1609,-0.1674,-0.1691,-0.1731,-0.1844,-0.1817,-0.1836,-0.19,-0.179,-0.1737,-0.1664,-0.1645,-0.1594,-0.1617,-0.1636,-0.1611,-0.1567,-0.1351,0,0,0,0,0,-0.131,-0.1306,-0.1344,-0.1385,-0.1452,-0.1488,-0.1589,-0.1657,-0.1772,-0.1674,-0.1738,-0.1681,-0.1601,-0.1621,-0.1504,-0.1663,-0.1657,-0.1523,-0.1613,-0.1672,-0.1691,-0.1679,0,0,0,0,0,0,-0.1257,-0.1288,-0.1294,-0.1249,-0.1246,-0.1297,-0.1349,-0.1435,-0.1393,-0.1515,-0.1471,-0.157,-0.1511,-0.1621,-0.1462,-0.1467,-0.1487,-0.1553,-0.1548,-0.166,-0.1678,-0.1694,-0.1689,0,0,0,0,0]},{"header":{"parameterUnit":"m.s-1","parameterCategory":2,"la1":30.2991,"la2":30.254,"lo1":-89.0895,"lo2":-89.0444,"dy":0.0017,"dx":0.0017,"nx":28,"ny":28,"refTime":"2025-11-20T03:00:00:Z","depth":"4","parameterNumber":3,"parameterNumberName":"V-component_of_CURRENTS"},"data":[0,0,0,0,0,0,0,0,0,0,0,0,0,0,0,0,0,0,0,0,0,0,0,0,0,0,0,0,0,0,0,0,0,0,0,0,0,0,0,0,0,0,0,0,0,0,0,0,0,0,0,0,0,0,0,0,0,0,-0.026,-0.0259,0,-0.0202,-0.0202,-0.0201,-0.0155,-0.0154,-0.0154,-0.0153,-0.006,-0.0058,-0.0056,0,0,0,0,0,0,0,0,0,0,0,0,0,-0.0292,-0.0292,-0.026,-0.0259,-0.0258,-0.0202,-0.0202,-0.0201,-0.0155,-0.0154,-0.0154,-0.0153,-0.0061,-0.0058,-0.0056,0,0,0,0,0,0,0,0,0,0,0,0,0,-0.026,-0.0292,-0.026,-0.0229,-0.0226,-0.0203,-0.0202,-0.02,-0.0155,-0.0154,-0.0154,-0.0153,-0.0061,-0.0058,-0.0055,-0.0047,0,0,-0.0045,-0.0044,0,0,0,0,0,0,0,0,-0.0262,-0.0259,-0.0234,-0.0231,-0.0228,-0.0186,-0.0179,-0.0148,-0.0155,-0.0181,-0.0153,-0.0153,-0.01,-0.0093,-0.0083,-0.0043,-0.0039,-0.0045,-0.0043,-0.0042,-0.0041,0,0,0,0,0,0,0,-0.0264,-0.0261,-0.0236,-0.0234,-0.023,-0.0206,-0.0201,-0.0172,-0.0143,-0.0178,-0.0175,-0.0171,-0.0097,-0.0086,-0.008,-0.0037,-0.0045,-0.0042,-0.004,-0.0039,0.0023,0.0022,0,0,0,0,0,0,-0.0276,-0.0263,-0.0238,-0.0234,-0.0245,-0.0206,-0.02,-0.0199,-0.0144,-0.0135,-0.0171,-0.0169,-0.0092,-0.0084,-0.0077,-0.0056,-0.0042,-0.0039,-0.0037,0.0023,0.0023,0.0022,0,0,0,0,0,0,-0.0277,-0.0274,-0.024,-0.0248,-0.0242,-0.0207,-0.0205,-0.0198,-0.0188,-0.0139,-0.0129,-0.0168,-0.0091,-0.0081,-0.0056,-0.0053,-0.0037,-0.0035,0.0023,0.0023,0.0023,-0.002,0,0,0,0,0,0,-0.0278,-0.0275,-0.0282,-0.0249,-0.0242,-0.0233,-0.0206,-0.0198,-0.0187,-0.0183,-0.0133,-0.0124,-0.009,-0.0061,-0.0053,-0.0048,-0.0032,0.0024,0.0023,0.0023,-0.0018,-0.0022,-0.0025,0,0,0,0,0,-0.0279,-0.0292,-0.0282,-0.028,-0.0251,-0.0234,-0.0228,-0.02,-0.0187,-0.0187,-0.0154,-0.0125,-0.0058,-0.0059,-0.0049,-0.0043,0.0024,0.0023,0.0023,-0.0017,-0.0021,-0.0025,0,0,0,0,0,0,-0.0309,-0.0287,-0.0276,-0.0281,-0.0262,-0.0226,-0.0226,-0.0207,-0.0181,-0.0178,-0.013,-0.0118,-0.0096,-0.0067,-0.007,-0.0028,-0.0012,-0.0011,-0.0045,-0.0049,-0.0052,-0.0059,-0.0029,0,0,0,0,0,-0.032,-0.0324,-0.0296,-0.0301,-0.0295,-0.0263,-0.0253,-0.0234,-0.0206,-0.0194,-0.016,-0.0123,-0.0091,-0.007,-0.0042,-0.0019,0.0017,-0.0008,-0.0012,-0.0015,-0.0015,0.0042,0.0045,0.002,0.002,0.002,0,0,-0.0332,-0.0322,-0.0324,-0.0308,-0.0291,-0.0287,-0.0255,-0.0247,-0.0238,-0.0188,-0.017,-0.0138,-0.009,-0.0065,-0.0051,-0.0039,0.0008,-0.0015,-0.0018,-0.0016,0.0042,0.0045,0.0047,0.002,0.002,0.002,0,0,-0.036,-0.0352,-0.0363,-0.0352,-0.0333,-0.0311,-0.0312,-0.0281,-0.0263,-0.0243,-0.0204,-0.0168,-0.0127,-0.0083,-0.0057,-0.0062,-0.0017,-0.0058,-0.007,-0.0015,-0.0013,-0.001,0.0028,0.0035,-0.0052,-0.0052,-0.0052,0,-0.0376,-0.0385,-0.0363,-0.0369,-0.0364,-0.0326,-0.0333,-0.0309,-0.0272,-0.0256,-0.0246,-0.0171,-0.0131,-0.0082,-0.0083,-0.0067,-0.0038,-0.0059,-0.0019,-0.0015,-0.0011,0.0027,0.0035,-0.0054,-0.0054,-0.0054,-0.0054,0,-0.0406,-0.0415,-0.0421,-0.0415,-0.0407,-0.0408,-0.0374,-0.0359,-0.0334,-0.0302,-0.026,-0.0205,-0.0157,-0.0138,-0.011,-0.0064,-0.0054,-0.0035,-0.0008,-0.0011,0.0029,0.0038,-0.0057,-0.0057,-0.0056,-0.0055,0,0,-0.0436,-0.0442,-0.0445,-0.0454,-0.0433,-0.043,-0.0414,-0.0385,-0.0372,-0.0326,-0.03,-0.0235,-0.0201,-0.017,-0.0125,-0.0072,-0.0022,-0.0048,-0.0044,-0.001,0.0087,0.0064,0.0072,0.0004,0.0005,0.0007,0.0101,0,-0.0465,-0.0497,-0.0484,-0.0505,-0.0517,-0.0481,-0.0472,-0.0439,-0.0401,-0.0365,-0.029,-0.0252,-0.0213,-0.0192,-0.0132,-0.0052,0.0001,-0.005,0.0085,0.0089,0.007,0.0082,0.0011,0.0108,0.011,0.0112,0.0113,0,-0.0494,-0.0513,-0.0548,-0.0556,-0.0557,-0.0563,-0.054,-0.0524,-0.0458,-0.0427,-0.0365,-0.0307,-0.0223,-0.0194,-0.0049,-0.0086,-0.0007,0.006,0.0065,0.0066,0.0083,0.0116,0.013,0.0129,0.0127,0.0126,0.0125,0,-0.053,-0.0553,-0.0587,-0.0591,-0.0593,-0.06,-0.0595,-0.0548,-0.0534,-0.0464,-0.0442,-0.0335,-0.0283,-0.0168,-0.0035,-0.004,0.0123,0.0138,0.0195,0.0194,0.0205,0.0202,0.0244,0.0244,0.0244,0.0243,0.0243,0,-0.056,-0.0587,-0.0614,-0.0633,-0.0671,-0.0651,-0.0668,-0.0641,-0.0598,-0.0578,-0.0482,-0.0437,-0.0274,-0.016,-0.0042,0.0099,0.0122,0.0195,0.0221,0.0183,0.0175,0.0211,0.0206,0.0247,0.0246,0.0245,0.0245,0,-0.0588,-0.0606,-0.0651,-0.0679,-0.0693,-0.072,-0.0733,-0.0735,-0.0689,-0.0657,-0.0637,-0.0505,-0.0356,-0.0194,0.0002,0.0082,0.0224,0.0271,0.0208,0.0229,0.0259,0.025,0.034,0.034,0.034,0.034,0.034,0,-0.0603,-0.0632,-0.0696,-0.0735,-0.0755,-0.0792,-0.0815,-0.0787,-0.078,-0.0695,-0.0676,-0.0533,-0.043,-0.0167,-0.0006,0.0216,0.0246,0.0307,0.0292,0.0254,0.0271,0.0262,0.0254,0.034,0.034,0.034,0.034,0,-0.063,-0.0661,-0.07,-0.0786,-0.0833,-0.0873,-0.0897,-0.0898,-0.0847,-0.0812,-0.0688,-0.054,-0.0373,-0.0168,0.0003,0.0161,0.0258,0.0308,0.0309,0.0296,0.0256,0.027,0.0262,0.0341,0.0341,0.0341,0.0341,0,-0.0649,-0.069,-0.0753,-0.0819,-0.0888,-0.0927,-0.0938,-0.0909,-0.0886,-0.0781,-0.0742,-0.0545,-0.0425,-0.0196,-0.0039,0.0112,0.0147,0.0183,0.0191,0.0193,0.0117,0.0042,0.0087,0,0,0,0,0,-0.0658,-0.0707,-0.078,-0.0852,-0.0921,-0.0952,-0.0976,-0.0969,-0.0925,-0.0841,-0.0783,-0.0618,-0.0363,-0.0247,-0.0098,-0.0057,0.0152,0.0117,0.0192,0.0342,0.0341,0.0275,0,0,0,0,0,0,-0.0667,-0.0739,-0.0777,-0.086,-0.0911,-0.0973,-0.0988,-0.0961,-0.0899,-0.0834,-0.0689,-0.06,-0.0347,-0.044,-0.0097,-0.0053,0.0008,0.0245,0.0247,0.0342,0.0342,0.0341,0.0273,0,0,0,0,0]}]]